Regional Weather Roundup
Issued by NWS Upton, NY

Current Version | Previous Version | Text Only | Print | Product List | Glossary On
Versions: 1 2 3 4 5 6 7 8 9 10 11 12 13 14 15 16 17 18 19 20 21 22 23 24 25 26 27 28 29 30 31 32 33 34 35 36 37 38 39 40 41 42 43 44 45 46 47 48 49 50
000
ASUS41 KOKX 280908
RWROKX

REGIONAL WEATHER ROUNDUP
NATIONAL WEATHER SERVICE NEW YORK NY
500 AM EDT TUE JUL 28 2015

NOTE: "FAIR" INDICATES FEW OR NO CLOUDS BELOW 12,000 FEET WITH NO
SIGNIFICANT WEATHER AND/OR OBSTRUCTIONS TO VISIBILITY.

NYZ071-072-176-178-NJZ106-104-281000-
NEW YORK CITY METRO AREA


CITY           SKY/WX    TMP DP  RH WIND       PRES   REMARKS
CENTRAL PARK   CLEAR     75  68  78 VRB5      30.02F
LAGUARDIA APRT CLEAR     76  68  76 CALM      29.99S
KENNEDY INTL   PTCLDY    73  70  90 S6        30.00F
NEWARK/LIBERTY PTCLDY    74  69  85 SW3       29.99F
BRNX BOT. GARD   N/A     75  68  78 NE1       30.01R
TETERBORO      CLEAR     72  66  81 CALM      29.98F
$$

NYZ177-179-078>081-281000-
LONG ISLAND NEW YORK

CITY           SKY/WX    TMP DP  RH WIND       PRES   REMARKS
FARMINGDALE    CLEAR     73  70  90 SW3       30.00S
ISLIP          CLEAR     73  70  90 SW6       29.99S
SHIRLEY        MOCLDY    74  72  93 SW3       30.01S
WESTHAMPTON    PTCLDY    73  72  96 SW5       30.02S
MONTAUK POINT    N/A     73  70  90 CALM      30.02S
$$

NYZ052-065-067-281000-
HUDSON VALLEY

CITY           SKY/WX    TMP DP  RH WIND       PRES   REMARKS
WHITE PLAINS   CLEAR     70  68  93 NW3       30.00F
NEWBURGH       PTCLDY    68  68 100 W6        30.01F FOG
MONTGOMERY     FOG       64  63  96 SW6       30.00F VSB 1/4
POUGHKEEPSIE   CLEAR     67  64  90 CALM      29.99S
ALBANY         PTCLDY    68  65  90 S6        29.99F
$$

NJZ001-105-106-008-010-013-015-019>022-104-281000-
NEW JERSEY

CITY           SKY/WX    TMP DP  RH WIND       PRES   REMARKS
NEWARK/LIBERTY PTCLDY    74  69  85 SW3       29.99F
TETERBORO      CLEAR     72  66  81 CALM      29.98F
CALDWELL       CLEAR     71  68  90 CALM      30.01S
MORRISTOWN     FOG       66  63  88 CALM      30.00F VSB 3/4
SOMERVILLE     FOG       67  65  93 CALM      29.99S VSB 1/2
SUSSEX         FOG       65  64  97 CALM      30.02S VSB 1/4
ANDOVER          N/A     65  65 100 CALM      30.02F
TRENTON        CLEAR     71  67  87 CALM      30.00S
MILLVILLE      CLEAR     70  68  93 CALM      30.00F
ATLANTIC CITY  PTCLDY    74  71  91 CALM      30.01S
WRIGHTSTOWN    CLEAR     68  68  99 CALM      29.98F
TOMS RIVER     CLOUDY    68  68 100 CALM      30.01S VSB 1/2
BELMAR         CLEAR     72  64  78 CALM      30.01S
$$

PAZ047>061-062-071-281000-
EASTERN PENNSYLVANIA

CITY           SKY/WX    TMP DP  RH WIND       PRES   REMARKS
PHILADELPHIA   PTCLDY    75  71  87 CALM      30.00F
ALLENTOWN      CLEAR     68  67  96 CALM      30.01F FOG
SCRANTON       CLEAR     65  62  90 E3        30.05S
$$

CTZ002-004>006-009-010-012-RIZ004-006-007-MAZ004-011-015-281000-
SOUTHERN NEW ENGLAND
 IN CT

CITY           SKY/WX    TMP DP  RH WIND       PRES   REMARKS
BRADLEY INTL   PTCLDY    69  67  93 S5        29.99S
HARTFORD       CLEAR     70  68  93 CALM      29.99S
DANBURY        CLEAR     66  63  90 SW3       30.02S FOG
WTRBRY/OXFORD  CLEAR     66  61  82 CALM      30.03S
BRIDGEPORT     CLEAR     72  69  90 CALM      30.00S
MERIDEN        MOCLDY    68  65  90 CALM      30.00S
NEW HAVEN      CLEAR     68  67  96 CALM      30.00S
CHESTER        FAIR      72  70  94 SW3       30.01F
GROTON         FOG       69  67  93 S3        30.00S VSB 1
WILLIMANTIC    CLOUDY    69  66  90 S3        30.00F

 IN RI

CITY           SKY/WX    TMP DP  RH WIND       PRES   REMARKS
PROVIDENCE     PTCLDY    69  68  96 S6        30.00F
BLOCK ISLAND   CLEAR     72  72 100 SW10      30.02S
WESTERLY       MOCLDY    70  68  93 S3        30.01S

 IN MA

CITY           SKY/WX    TMP DP  RH WIND       PRES   REMARKS
BOSTON         PTCLDY    70  68  93 SW7       29.98S
WORCESTER      NOT AVBL
WESTFIELD      FOG       64  63  96 CALM      29.99S VSB 1/4
PROVINCETOWN   MOCLDY    70  64  83 S9        30.00S
NANTUCKET      CLEAR     69  67  93 S6        30.02S
$$

ANZ330-335-338-340-345-350-353-355-281000-
COASTAL MARINE OBSERVATIONS


STATION/POSITION TIME  SKY/WX   TEMP    WIND        PRES    VSBY  WAVE
                                AIR SEA DIR/SP/G                  HT/PER
                 (UTC)          (F)     (DEG/KT/KT) (MB)    (MI)  (FT/S)
NY HARB ENTRANCE 0850            74 75  240/  8/  8 1015.5          2/11
4S FIRE IS       NOT AVBL
20S FIRE ISLAND  0850            74 71  200/  6/  6 1015.9          2/10
GREAT SOUTH BAY  0830            75 79  230/  6/ 10   N/A
23SW MTP         0850            74 74  220/  6/  8 1015.8          2/10
HUDSON CANYON    NOT AVBL
KINGS POINT      0800            75 71  170/  1/  2 1015.2
CENTRAL LI SOUND NOT AVBL
EASTERN LI SOUND 0800            71 69  230/  2/  4   N/A
ROBBINS REEF     0800            74     280/  4/  4 1014.8
$$


>>>>>>>>>>>>>>>>>>>>>>>>>>>> KEY <<<<<<<<<<<<<<<<<<<<<<<<<<<
>                                                          <
>     SKY/WX - SKY CONDITION/PRESENT WEATHER               <
>     TMP    - TEMPERATURE IN FAHRENHEIT                   <
>     DP     - DEWPOINT IN FAHRENHEIT                      <
>     RH     - RELATIVE HUMIDITY IN PERCENT                <
>     WIND   - DIRECTION AND SPEED IN MPH                  <
>     PRES   - MEAN SEA LEVEL PRESSURE IN INCHES OF HG     <
>     WCI    - WIND CHILL INDEX                            <
>     VSB    - VISIBILITY IN MILES                         <
>     HX     - HEAT INDEX                                  <
>     TC     - TEMPERATURE IN CELSIUS                      <
>     VRB    - VARIABLE WIND DIRECTION                     <
>                                                          <
>>>>>>>>>>>>>>>>>>>>>>>>>>>> KEY <<<<<<<<<<<<<<<<<<<<<<<<<<<




USA.gov is the U.S. government's official web portal to all federal, state and local government web resources and services.